• In Schweiz
  • Länderverzeichnis
  • Für 7 Tage
  • Wassertemperatur
  • Satellitenkarten
  • Wetterkarte
  • Widgets
  • user-avatar
    Anmelden

    Stündliche Wetter Novyy Berdyash

    Heute, 20 Oktober, Samstag

    Zeit Temperatur Niederschläge Wind Luftdruck Luftfeuchtigkeit
    00:00 +7°C° 0 mm 4 m/S 744 mmHg 95%
    01:00 +7°C° 0 mm 4 m/S 744 mmHg 95%
    02:00 +8°C° 0.1 mm 3 m/S 743 mmHg 95%
    03:00 +8°C° 0.1 mm 3 m/S 743 mmHg 96%
    04:00 +8°C° 0 mm 4 m/S 742 mmHg 97%
    05:00 +8°C° 0.3 mm 4 m/S 742 mmHg 97%
    06:00 +9°C° 0.3 mm 3 m/S 742 mmHg 97%
    07:00 +9°C° 0.3 mm 3 m/S 742 mmHg 97%
    08:00 +9°C° 0.6 mm 3 m/S 742 mmHg 95%
    09:00 +9°C° 0.6 mm 3 m/S 742 mmHg 93%
    10:00 +9°C° 0.6 mm 3 m/S 742 mmHg 91%
    11:00 +10°C° 0.3 mm 3 m/S 742 mmHg 84%
    12:00 +10°C° 0.3 mm 3 m/S 742 mmHg 78%
    13:00 +11°C° 0.3 mm 3 m/S 743 mmHg 72%
    14:00 +10°C° 0.1 mm 3 m/S 743 mmHg 73%
    15:00 +10°C° 0.1 mm 3 m/S 743 mmHg 74%
    16:00 +10°C° 0.1 mm 3 m/S 743 mmHg 75%
    17:00 +9°C° 0 mm 2 m/S 743 mmHg 79%
    18:00 +7°C° 0 mm 2 m/S 743 mmHg 82%
    19:00 +6°C° 0 mm 2 m/S 744 mmHg 86%
    20:00 +6°C° 0 mm 2 m/S 744 mmHg 87%
    21:00 +5°C° 0 mm 2 m/S 744 mmHg 89%
    22:00 +5°C° 0 mm 2 m/S 745 mmHg 90%
    23:00 +5°C° 0 mm 2 m/S 745 mmHg 92%

    Morgen, 21 Oktober, Sonntag

    Zeit Temperatur Niederschläge Wind Luftdruck Luftfeuchtigkeit
    00:00 +4°C° 0 mm 2 m/S 745 mmHg 93%
    01:00 +4°C° 0 mm 2 m/S 745 mmHg 95%
    02:00 +4°C° 0 mm 2 m/S 746 mmHg 95%
    03:00 +2°C° 0 mm 3 m/S 746 mmHg 95%
    04:00 +2°C° 0 mm 3 m/S 747 mmHg 95%
    05:00 +2°C° 0 mm 3 m/S 747 mmHg 94%
    06:00 +2°C° 0 mm 3 m/S 747 mmHg 92%
    07:00 +2°C° 0 mm 3 m/S 748 mmHg 90%
    08:00 +2°C° 0 mm 3 m/S 748 mmHg 86%
    09:00 +1°C° 0 mm 4 m/S 749 mmHg 81%
    10:00 +3°C° 0 mm 4 m/S 749 mmHg 77%
    11:00 +3°C° 0 mm 4 m/S 750 mmHg 74%
    12:00 +3°C° 0 mm 4 m/S 750 mmHg 72%
    13:00 +3°C° 0 mm 4 m/S 751 mmHg 69%
    14:00 +3°C° 0 mm 4 m/S 751 mmHg 69%
    15:00 +1°C° 0 mm 4 m/S 752 mmHg 69%
    16:00 +1°C° 0 mm 4 m/S 752 mmHg 69%
    17:00 +2°C° 0 mm 3 m/S 752 mmHg 70%
    18:00 +2°C° 0 mm 3 m/S 753 mmHg 71%
    19:00 +1°C° 0 mm 3 m/S 753 mmHg 72%
    20:00 +2°C° 0 mm 2 m/S 754 mmHg 73%
    21:00 +2°C° 0 mm 2 m/S 754 mmHg 74%
    22:00 +2°C° 0 mm 2 m/S 754 mmHg 75%
    23:00 +2°C° 0 mm 2 m/S 754 mmHg 75%

    übermorgen, 22 Oktober, Montag

    Zeit Temperatur Niederschläge Wind Luftdruck Luftfeuchtigkeit
    00:00 +2°C° 0 mm 2 m/S 755 mmHg 75%
    01:00 +2°C° 0 mm 2 m/S 755 mmHg 76%
    02:00 +1°C° 0 mm 2 m/S 755 mmHg 79%
    03:00 +1°C° 0 mm 2 m/S 755 mmHg 83%
    04:00 -1°C° 0 mm 2 m/S 756 mmHg 86%
    05:00 +1°C° 0 mm 1 m/S 756 mmHg 88%
    06:00 +1°C° 0 mm 1 m/S 756 mmHg 90%
    07:00 +1°C° 0 mm 1 m/S 756 mmHg 92%
    08:00 +2°C° 0 mm 1 m/S 756 mmHg 87%
    09:00 +2°C° 0 mm 2 m/S 756 mmHg 82%
    10:00 +3°C° 0 mm 2 m/S 757 mmHg 77%
    11:00 +3°C° 0 mm 2 m/S 757 mmHg 74%
    12:00 +4°C° 0 mm 2 m/S 756 mmHg 71%
    13:00 +4°C° 0 mm 2 m/S 756 mmHg 69%
    14:00 +4°C° 0 mm 2 m/S 756 mmHg 71%
    15:00 +4°C° 0 mm 2 m/S 756 mmHg 73%
    16:00 +4°C° 0 mm 2 m/S 756 mmHg 75%
    17:00 +3°C° 0 mm 2 m/S 756 mmHg 79%
    18:00 +2°C° 0 mm 2 m/S 756 mmHg 83%
    19:00 +2°C° 0 mm 2 m/S 756 mmHg 87%
    20:00 +2°C° 0 mm 2 m/S 756 mmHg 87%
    21:00 +1°C° 0 mm 2 m/S 756 mmHg 87%
    22:00 0°C° 0 mm 3 m/S 755 mmHg 88%
    23:00 0°C° 0 mm 3 m/S 755 mmHg 88%

    23 Oktober, Dienstag

    Zeit Temperatur Niederschläge Wind Luftdruck Luftfeuchtigkeit
    00:00 0°C° 0 mm 3 m/S 755 mmHg 87%
    01:00 0°C° 0 mm 4 m/S 755 mmHg 87%
    02:00 0°C° 0 mm 4 m/S 755 mmHg 86%
    03:00 -1°C° 0 mm 4 m/S 754 mmHg 85%
    04:00 -1°C° 0 mm 4 m/S 754 mmHg 84%
    05:00 -1°C° 0 mm 4 m/S 754 mmHg 84%
    06:00 -1°C° 0 mm 4 m/S 754 mmHg 83%
    07:00 -1°C° 0 mm 4 m/S 754 mmHg 83%
    08:00 0°C° 0 mm 5 m/S 753 mmHg 79%
    09:00 +1°C° 0 mm 5 m/S 753 mmHg 75%
    10:00 +2°C° 0 mm 5 m/S 753 mmHg 71%
    11:00 +2°C° 0 mm 5 m/S 753 mmHg 69%
    12:00 +3°C° 0 mm 5 m/S 752 mmHg 67%
    13:00 +5°C° 0 mm 5 m/S 752 mmHg 64%
    14:00 +5°C° 0 mm 5 m/S 752 mmHg 66%
    15:00 +3°C° 0 mm 5 m/S 752 mmHg 67%
    16:00 +4°C° 0 mm 4 m/S 751 mmHg 69%
    17:00 +4°C° 0 mm 4 m/S 751 mmHg 70%
    18:00 +3°C° 0 mm 4 m/S 751 mmHg 71%
    19:00 +1°C° 0 mm 4 m/S 751 mmHg 72%
    20:00 +1°C° 0 mm 4 m/S 751 mmHg 71%
    21:00 +1°C° 0 mm 4 m/S 750 mmHg 71%
    22:00 +1°C° 0 mm 4 m/S 750 mmHg 70%
    23:00 +1°C° 0 mm 4 m/S 750 mmHg 70%

    24 Oktober, Mittwoch

    Zeit Temperatur Niederschläge Wind Luftdruck Luftfeuchtigkeit
    00:00 +1°C° 0 mm 4 m/S 749 mmHg 69%
    01:00 +1°C° 0 mm 5 m/S 749 mmHg 69%
    02:00 +1°C° 0 mm 5 m/S 748 mmHg 71%
    03:00 +1°C° 0 mm 5 m/S 748 mmHg 73%
    04:00 +1°C° 0 mm 5 m/S 747 mmHg 74%
    05:00 +1°C° 0 mm 5 m/S 747 mmHg 77%
    06:00 +2°C° 0 mm 5 m/S 747 mmHg 80%
    07:00 +2°C° 0 mm 5 m/S 746 mmHg 82%
    08:00 +3°C° 0 mm 5 m/S 746 mmHg 80%
    09:00 +4°C° 0 mm 6 m/S 746 mmHg 79%
    10:00 +5°C° 0 mm 6 m/S 745 mmHg 77%
    11:00 +7°C° 0.1 mm 6 m/S 745 mmHg 78%
    12:00 +7°C° 0.1 mm 6 m/S 745 mmHg 79%
    13:00 +8°C° 0.1 mm 6 m/S 745 mmHg 80%
    14:00 +8°C° 0.1 mm 6 m/S 745 mmHg 81%
    15:00 +7°C° 0.1 mm 6 m/S 745 mmHg 82%
    16:00 +7°C° 0.1 mm 6 m/S 745 mmHg 83%
    17:00 +7°C° 0.1 mm 6 m/S 745 mmHg 80%
    18:00 +7°C° 0.1 mm 5 m/S 745 mmHg 77%
    19:00 +7°C° 0.1 mm 5 m/S 745 mmHg 74%
    20:00 +7°C° 0.1 mm 5 m/S 745 mmHg 72%
    21:00 +7°C° 0.1 mm 5 m/S 745 mmHg 71%
    22:00 +7°C° 0.1 mm 5 m/S 746 mmHg 69%
    23:00 +7°C° 0 mm 5 m/S 746 mmHg 71%

    25 Oktober, Donnerstag

    Zeit Temperatur Niederschläge Wind Luftdruck Luftfeuchtigkeit
    00:00 +7°C° 0 mm 5 m/S 746 mmHg 73%
    01:00 +7°C° 0 mm 4 m/S 746 mmHg 74%
    02:00 +7°C° 0 mm 4 m/S 746 mmHg 75%
    03:00 +6°C° 0 mm 4 m/S 746 mmHg 76%
    04:00 +7°C° 0 mm 3 m/S 746 mmHg 77%
    05:00 +7°C° 0 mm 3 m/S 746 mmHg 76%
    06:00 +7°C° 0 mm 3 m/S 746 mmHg 75%
    07:00 +5°C° 0 mm 3 m/S 747 mmHg 75%
    08:00 +6°C° 0 mm 4 m/S 746 mmHg 70%
    09:00 +8°C° 0 mm 4 m/S 746 mmHg 66%
    10:00 +10°C° 0 mm 4 m/S 746 mmHg 62%
    11:00 +10°C° 0 mm 5 m/S 746 mmHg 59%
    12:00 +12°C° 0 mm 5 m/S 746 mmHg 56%
    13:00 +13°C° 0 mm 5 m/S 745 mmHg 53%
    14:00 +12°C° 0 mm 5 m/S 745 mmHg 55%
    15:00 +12°C° 0 mm 5 m/S 745 mmHg 57%
    16:00 +11°C° 0 mm 4 m/S 745 mmHg 59%
    17:00 +11°C° 0 mm 4 m/S 745 mmHg 60%
    18:00 +10°C° 0 mm 4 m/S 745 mmHg 61%
    19:00 +10°C° 0 mm 4 m/S 745 mmHg 62%
    20:00 +8°C° 0 mm 4 m/S 745 mmHg 59%
    21:00 +8°C° 0 mm 4 m/S 745 mmHg 57%
    22:00 +8°C° 0 mm 4 m/S 745 mmHg 54%
    23:00 +8°C° 0 mm 4 m/S 745 mmHg 53%
    Mehr zeigen